MINOTAUR DEB

Satellite information

Favourite Embed

Satellite Type and Status

DEBRISIN ORBIT

Key statistics

Satellite MINOTAUR DEB at a glance.

Uptime

9453

Days in orbit

Revolutions

≈ 14.5

Per day

Orbit

SSO

Sun Synchronous Orbit

Inclination

100.2

Latest

Satellite identification and parameters

Extended collection of information and parameters for MINOTAUR DEB.

Object identification

Identified? True

Debris? True

Object name: MINOTAUR DEB

International designator: 2000-004G

Object number (NORAD): 26079

Object ID (CCSDS): 26079

Country: UNITED STATES OF AMERICA (US)

Current information (Y/N): Y

RCS size: SMALL

Orbital parameters

Period: 99.368 minutes

Inclination: 100.2238 deg

SMA: 7106.511 km

Apoapsis: 750.109 km

Periapsis: 706.644 km

RAAN: 345.5425 deg

Eccentricy: 0.00305808

Argument of periapsis: 328.0679 deg

Mean anomaly: 93.5072 deg

Mean motion: 14.49165792 rev/day

Mean motion (dot): 0.00002085 rev/day2

B* drag term: 0.00056099477 1/REarth

Two-line elements (TLE)

Creation date: Dec. 12, 2025, 10:14 a.m.

Reference frame: TEME

Reference center: EARTH

Epoch: Dec. 12, 2025, 5:33 a.m. UTC

TLE line 0: 0 MINOTAUR DEB

TLE line 1: 1 26079U 00004G 25346.23166846 .00002085 00000-0 56099-3 0 9991

TLE line 2: 2 26079 100.2238 345.5425 0030581 328.0679 93.5072 14.49165792360522

Live tracking on map

Real-time ground track for satellite MINOTAUR DEB.

In-orbit conjunctions

A list of the most updated potential collisions computed for object MINOTAUR DEB.

Target Orbit TCA Probability of collision Miss distance Type
SL-8 R/B LEO 2025-05-01 22:18:47 0.0001486052 617.0 (m) ROCKET BODY
CZ-6A DEB LEO 2025-01-27 15:57:21 0.0001149291 107.0 (m) DEBRIS
CZ-6A DEB LEO 2024-11-14 06:07:12 0.0008579661 265.0 (m) DEBRIS
CZ-6A DEB SSO 2024-11-11 22:29:31 0.0006122738 427.0 (m) DEBRIS
CZ-6A DEB SSO 2024-09-25 11:59:56 0.0002446121 333.0 (m) DEBRIS

Associated space launch

The JAWSAT (Joint Air Force Academy / Weber State University Satellite) project was developed by students working alongside aerospace professionals. Initially designed with a pulsed-plasma thruster to train Air Force Academy cadets (see JAWSAT), the mission has since evolved to include the efforts of several universities, local aerospace companies, the Air Force Academy, the Air Force Research Laboratory, and NASA. Utilizing breakthrough technologies, JAWSAT deployed four satellites when it reached orbit. The onboard imaging system recorded the deployment of each payload with its six digital cameras. The first free-flying Academy satellite, FalconSat-1 carried the CHAWS (Charging Hazards and Wake Studies) experiment developed by the Physics Department at the Academy.

MINOTAUR DEB was lifted into orbit during the mission ‘Minotaur I | JAWSAT & FalconSat 1’, on board a Minotaur I space rocket.

The launch took place on Jan. 27, 2000, 3:03 a.m. from Space Launch Complex 8.

For more information about the launch, click the button.

Launch to space Minotaur I | JAWSAT & FalconSat 1
Minotaur I | JAWSAT & FalconSat 1

Agency: N/A

Status: Launch Successful

Launch date: Jan. 27, 2000, 3:03 a.m. UTC

Rocket: Minotaur I

Launch pad: Space Launch Complex 8

Location: Vandenberg SFB, CA, USA

...

Latest news about this satellite

There are no fresh news available about this satellite. Check back as we update our databases every day.


Newsletter sign-up

Weekly statistics, charts and insights to help you stay on top of the space industry.